IZ1UKX-13 Weather Reports


time (UTC)temp
C
wind
direction
speed
KPH
gust
KPH
rain 1hr
cm
rain 24hr
cm
rain mn
cm
humidity
%
barometer
mb
20260505041411 11 315 3.2 3.2 0.20 0.48 0.00 94 1024.9
20260505040911 11 270 4.8 6.4 0.08 0.36 0.00 94 1024.9
20260505040411 11 338 3.2 3.2 0.05 0.33 0.00 94 1024.9
20260505035911 11 315 0.0 0.0 0.28 0.28 0.00 93 1024.9
20260505035411 11 315 1.6 0.0 0.28 0.28 0.00 93 1024.9
20260505034911 11 113 1.6 0.0 0.23 0.23 0.00 93 1024.9
20260505034411 11 113 1.6 3.2 0.20 0.20 0.00 93 1024.9
20260505033912 11 113 0.0 0.0 0.20 0.20 0.00 93 1024.9
20260505033411 11 135 0.0 0.0 0.15 0.15 0.00 93 1024.9
20260505032911 11 135 0.0 3.2 0.13 0.13 0.00 93 1024.9
20260505032411 11 135 0.0 0.0 0.08 0.08 0.00 93 1024.9
20260505031911 11 135 0.0 0.0 0.05 0.05 0.00 93 1024.9
20260505031411 11 135 0.0 0.0 0.05 0.05 0.00 93 1024.9
20260505030911 11 135 0.0 0.0 0.05 0.05 0.00 93 1024.9
20260505030412 11 135 0.0 0.0 0.05 0.05 0.00 93 1024.5
20260505030321 11 135 0.0 0.0 0.00 0.00 0.00 93 1024.5
20260505030256 11 135 0.0 0.0 0.00 0.00 0.00 93 1024.5
20260505030206 11 135 0.0 0.0 0.00 0.00 0.00 93 1024.5
20260505030141 11 135 0.0 0.0 0.00 0.00 0.00 93 1024.5
20260505030115 11 135 0.0 0.0 0.00 0.33 0.00 93 1024.9
20260505025614 11 135 0.0 0.0 0.15 0.28 0.00 93 1024.9
20260505025114 11 135 0.0 0.0 0.15 0.28 0.00 93 1024.9
20260505024614 11 135 0.0 0.0 0.13 0.23 0.00 92 1024.9
20260505024114 11 135 0.0 0.0 0.13 0.23 0.00 92 1024.9
20260505023614 11 135 0.0 0.0 0.08 0.20 0.00 92 1024.9
20260505023114 11 135 0.0 0.0 0.08 0.20 0.00 92 1024.9
20260505022614 11 135 0.0 0.0 0.08 0.20 0.00 92 1024.9
20260505022115 11 135 0.0 0.0 0.05 0.15 0.00 91 1024.5
20260505021614 11 135 0.0 0.0 0.05 0.15 0.00 91 1024.5
20260505021115 11 135 0.0 0.0 0.05 0.15 0.00 91 1024.5
20260505020615 11 135 0.0 0.0 0.00 0.13 0.00 91 1024.5
20260505020114 11 135 0.0 0.0 0.00 0.13 0.00 90 1024.5
20260505015615 11 135 0.0 0.0 0.13 0.13 0.00 90 1024.5
20260505015114 11 135 0.0 0.0 0.08 0.08 0.00 89 1024.5
20260505014614 11 135 0.0 0.0 0.08 0.08 0.00 89 1024.5
20260505014115 11 135 0.0 0.0 0.05 0.05 0.00 89 1024.5
20260505013615 11 135 0.0 0.0 0.05 0.05 0.00 88 1024.5
20260505013114 11 135 0.0 0.0 0.05 0.05 0.00 87 1024.5
20260505012614 12 135 0.0 0.0 0.05 0.05 0.00 87 1024.5
20260505012114 12 135 0.0 0.0 0.05 0.05 0.00 86 1024.5
20260505011614 12 135 0.0 0.0 0.05 0.05 0.00 84 1024.5
20260505011114 12 135 0.0 0.0 0.00 0.00 0.00 83 1024.5
20260505010615 12 135 0.0 0.0 0.00 0.00 0.00 82 1024.5
20260505010114 12 135 0.0 0.0 0.00 0.00 0.00 81 1024.5
20260505005614 12 135 0.0 0.0 0.00 0.00 0.00 79 1024.5
20260505005114 13 135 0.0 0.0 0.00 0.00 0.00 76 1024.5
20260505004614 13 135 0.0 0.0 0.00 0.00 0.00 73 1024.5
20260505004114 13 135 0.0 0.0 0.00 0.00 0.00 71 1024.5
20260505003614 13 135 0.0 0.0 0.00 0.00 0.00 70 1024.5
20260505003114 13 135 0.0 0.0 0.00 0.00 0.00 69 1024.0
20260505002614 13 135 0.0 0.0 0.00 0.00 0.00 69 1024.0
20260505002115 13 135 0.0 0.0 0.00 0.00 0.00 68 1024.0
20260505001614 14 135 0.0 0.0 0.00 0.00 0.00 68 1024.0
20260505001114 14 135 0.0 0.0 0.00 0.00 0.00 68 1024.0
20260505000614 14 135 0.0 0.0 0.00 0.00 0.00 68 1024.0
20260505000114 14 135 0.0 0.0 0.00 0.00 0.00 68 1024.0
20260504235614 14 135 0.0 0.0 0.00 0.00 0.00 68 1024.0
20260504235114 14 135 0.0 0.0 0.00 0.00 0.00 68 1024.0
20260504234614 14 135 1.6 0.0 0.00 0.00 0.00 68 1024.0
20260504234114 14 135 0.0 0.0 0.00 0.00 0.00 68 1024.0
20260504233614 14 135 0.0 0.0 0.00 0.00 0.00 68 1024.0
20260504233114 14 135 0.0 0.0 0.00 0.00 0.00 68 1024.0
20260504232614 14 135 0.0 0.0 0.00 0.00 0.00 68 1024.0
20260504232114 14 135 0.0 0.0 0.00 0.00 0.00 69 1024.0
20260504231614 14 135 0.0 0.0 0.00 0.00 0.00 68 1024.0
20260504231114 14 135 0.0 0.0 0.00 0.00 0.00 68 1024.0
20260504230614 14 135 0.0 0.0 0.00 0.00 0.00 69 1024.0
20260504230114 14 135 0.0 0.0 0.00 0.00 0.00 69 1024.0
20260504225614 14 135 0.0 0.0 0.00 0.00 0.00 69 1024.0
20260504225114 14 135 1.6 3.2 0.00 0.00 0.00 68 1024.0
20260504224615 14 135 0.0 0.0 0.00 0.00 0.00 68 1024.0
20260504224114 14 135 4.8 3.2 0.00 0.00 0.00 68 1024.0
20260504223614 14 135 3.2 6.4 0.00 0.00 0.00 70 1024.0
20260504223114 14 135 1.6 3.2 0.00 0.00 0.00 71 1024.0
20260504222614 13 135 4.8 3.2 0.00 0.00 0.00 71 1024.0
20260504222114 13 135 0.0 0.0 0.00 0.00 0.00 71 1024.0
20260504221614 13 135 3.2 3.2 0.00 0.00 0.00 72 1024.0
20260504221114 13 113 3.2 3.2 0.00 0.00 0.00 73 1024.0
20260504220614 13 113 0.0 0.0 0.00 0.00 0.00 74 1024.0
20260504220114 13 113 0.0 0.0 0.00 0.00 0.00 74 1024.0
20260504215615 13 113 1.6 3.2 0.00 0.00 0.00 73 1024.5
20260504215114 13 113 3.2 3.2 0.00 0.00 0.00 75 1024.5
20260504214614 13 113 1.6 3.2 0.00 0.00 0.00 77 1024.5
20260504214114 13 113 1.6 0.0 0.00 0.00 0.00 78 1024.5
20260504213614 12 113 0.0 0.0 0.00 0.00 0.00 79 1024.5
20260504213114 13 113 0.0 0.0 0.00 0.00 0.00 80 1023.8
20260504213049 12 113 0.0 0.0 0.00 0.00 0.00 80 1024.5
20260504212550 13 113 0.0 0.0 0.00 0.00 0.00 80 1024.5
20260504212049 13 113 0.0 0.0 0.00 0.00 0.00 79 1024.5
20260504211549 13 113 0.0 0.0 0.00 0.00 0.00 79 1024.5
20260504211049 13 113 0.0 0.0 0.00 0.00 0.00 79 1024.5
20260504210549 13 113 0.0 0.0 0.00 0.00 0.00 79 1024.5
20260504210049 13 113 0.0 0.0 0.00 0.00 0.00 79 1024.5
20260504205549 12 113 0.0 0.0 0.00 0.00 0.00 79 1024.5
20260504205049 12 113 1.6 3.2 0.00 0.00 0.00 80 1024.5
20260504204549 12 113 0.0 0.0 0.00 0.00 0.00 80 1024.5
20260504204049 12 113 0.0 0.0 0.00 0.00 0.00 80 1024.5
20260504203549 12 113 0.0 0.0 0.00 0.00 0.00 80 1024.5
20260504203049 13 113 0.0 0.0 0.00 0.00 0.00 80 1024.5
20260504202524 13 113 0.0 0.0 0.00 0.00 0.00 79 1024.5
20260504202024 13 113 0.0 0.0 0.00 0.00 0.00 79 1024.5
20260504201524 13 113 0.0 0.0 0.00 0.00 0.00 78 1024.5
20260504201024 13 113 0.0 0.0 0.00 0.00 0.00 77 1024.0
20260504200934 13 113 0.0 0.0 0.00 0.00 0.00 77 1024.0
20260504200909 13 113 1.6 0.0 0.00 0.00 0.00 77 1024.0
20260504200409 13 113 0.0 0.0 0.00 0.00 0.00 78 1024.0
20260504195910 13 113 0.0 0.0 0.00 0.00 0.00 78 1024.0
20260504195409 13 113 0.0 0.0 0.00 0.00 0.00 78 1024.0
20260504195344 13 113 0.0 0.0 0.00 0.00 0.00 78 1024.0
20260504194844 13 113 0.0 0.0 0.00 0.00 0.00 79 1024.0
20260504194343 13 113 0.0 0.0 0.00 0.00 0.00 78 1024.0
20260504193844 13 113 0.0 3.2 0.00 0.00 0.00 77 1024.0
20260504193344 13 113 0.0 0.0 0.00 0.00 0.00 77 1024.0
20260504192844 13 113 0.0 0.0 0.00 0.00 0.00 75 1024.0
20260504192344 13 113 0.0 0.0 0.00 0.00 0.00 72 1024.0
20260504191844 13 113 1.6 3.2 0.00 0.00 0.00 74 1024.0
20260504191343 13 113 0.0 0.0 0.00 0.00 0.00 77 1024.0
20260504190848 13 113 0.0 0.0 0.00 0.00 0.00 76 1024.0
20260504190344 13 113 0.0 0.0 0.00 0.00 0.00 74 1024.0
20260504185844 13 113 0.0 0.0 0.00 0.00 0.00 77 1024.0
20260504185343 13 113 0.0 0.0 0.00 0.00 0.00 80 1024.0
20260504184844 13 113 1.6 0.0 0.00 0.00 0.00 79 1024.0
20260504184344 14 113 1.6 3.2 0.00 0.00 0.00 79 1024.0
20260504183844 14 113 0.0 0.0 0.00 0.00 0.00 80 1024.0
20260504183344 14 113 0.0 0.0 0.00 0.00 0.00 79 1024.0
20260504182843 14 113 0.0 0.0 0.00 0.00 0.00 79 1024.0
20260504182344 14 113 1.6 3.2 0.00 0.00 0.00 78 1024.0
20260504181843 14 113 0.0 0.0 0.00 0.00 0.00 78 1024.0
20260504181343 14 113 0.0 0.0 0.00 0.00 0.00 77 1024.0
20260504180843 14 113 3.2 3.2 0.00 0.00 0.00 77 1024.0
20260504180343 15 113 0.0 3.2 0.00 0.00 0.00 76 1024.0
20260504175844 15 113 0.0 0.0 0.00 0.00 0.00 76 1024.0
20260504175343 15 113 0.0 3.2 0.00 0.00 0.00 75 1024.0
20260504174844 15 113 1.6 3.2 0.00 0.00 0.00 75 1024.0
20260504174344 15 113 0.0 0.0 0.00 0.00 0.00 75 1024.0
20260504173844 15 113 1.6 3.2 0.00 0.00 0.00 74 1024.0
20260504173345 15 113 1.6 0.0 0.00 0.00 0.00 74 1024.0
20260504172844 15 113 1.6 0.0 0.00 0.00 0.00 73 1024.0
20260504172344 15 203 3.2 3.2 0.00 0.00 0.00 72 1024.0
20260504171843 15 135 0.0 0.0 0.00 0.00 0.00 72 1024.0
20260504171344 15 135 3.2 3.2 0.00 0.00 0.00 72 1024.0
20260504170844 15 135 1.6 6.4 0.00 0.00 0.00 72 1023.6
20260504170343 16 68 3.2 3.2 0.00 0.00 0.00 71 1023.6
20260504160343 17 135 3.2 6.4 0.00 0.00 0.00 57 1023.6
20260504150843 20 158 3.2 3.2 0.00 0.00 0.00 53 1023.2
20260504150344 20 135 4.8 6.4 0.00 0.00 0.00 54 1022.7
20260504141204 20 113 4.8 11.3 0.00 0.00 0.00 56 1023.2
20260504140704 20 113 3.2 6.4 0.00 0.00 0.00 57 1023.2
20260504140204 20 158 4.8 11.3 0.00 0.00 0.00 56 1023.2
20260504130638 20 113 4.8 6.4 0.00 0.00 0.00 40 1023.2
20260504130139 20 90 4.8 3.2 0.00 0.00 0.00 44 1023.2
20260504120138 20 135 6.4 6.4 0.00 0.00 0.00 57 1023.2
20260504110409 19 113 3.2 3.2 0.00 0.00 0.00 56 1023.2
20260504100409 16 135 3.2 3.2 0.00 0.00 0.00 71 1023.6
20260504081908 15 113 3.2 3.2 0.00 0.00 0.00 65 1024.0
20260504081408 15 113 3.2 3.2 0.00 0.00 0.00 65 1024.0
20260504080908 15 113 3.2 0.0 0.00 0.00 0.00 64 1024.0
20260504080409 15 90 1.6 3.2 0.00 0.00 0.00 62 1024.0
20260504070409 14 68 0.0 0.0 0.00 0.00 0.00 65 1024.0
20260504070343 14 68 0.0 0.0 0.00 0.00 0.00 65 1024.0
20260504050343 8 68 0.0 0.0 0.00 0.00 0.00 80 1025.4
20260504045843 8 68 0.0 0.0 0.00 0.00 0.00 81 1025.4